Theta_e
323 325 325 327 328 330 331 333 336 337 338 338 339 341 341 344 346 347 344 341 341 347 347 346 346 347 346 347 348 347 347 346 345 344 342 340 336 336 334 332 331 330 330
327 327 327 327 329 331 333 335 335 336 336 338 337 341 339 343 345 345 340 340 343 344 345 346 348 346 346 346 347 346 345 345 342 340 339 338 335 333 331 331 330 330 330
328 327 328 329 333 336 335 336 335 337 337 337 334 339 338 342 344 341 340 336 340 340 341 343 348 348 347 347 347 346 344 343 339 338 338 337 332 331 330 330 330 329 329
331 330 329 330 335 333 333 332 332 331 334 334 334 337 341 342 338 340 336 334 333 338 338 342 345 346 348 346 347 345 342 341 338 336 334 331 330 330 330 329 328 328 328
331 332 331 333 334 330 333 333 333 333 332 331 331 334 335 337 336 334 334 335 333 337 337 340 342 343 346 346 346 345 341 337 336 332 331 330 329 329 328 328 327 327 327
331 332 329 330 330 331 333 333 333 335 333 330 329 330 330 332 333 333 334 335 335 335 337 337 340 341 344 346 345 342 339 336 332 331 329 329 328 327 327 327 326 325 325
328 331 331 331 333 330 333 335 336 332 327 331 327 326 327 329 333 331 334 334 332 334 335 335 337 337 339 341 342 340 338 335 331 329 329 330 327 326 326 326 325 325 325
329 332 331 331 334 332 333 333 333 332 329 330 324 322 317 321 327 332 331 331 331 333 332 334 336 336 337 338 340 340 337 333 330 328 327 328 326 326 325 325 324 324 324
328 330 332 333 334 334 333 334 333 330 324 330 332 328 319 314 317 322 324 328 329 329 330 333 335 335 337 338 339 339 337 333 329 327 326 326 325 325 325 324 324 323 322
329 330 330 331 329 333 334 332 334 328 329 325 333 331 329 326 316 313 318 321 324 325 327 329 335 335 336 337 340 339 334 332 330 327 328 328 327 325 324 324 323 322 321
329 332 329 327 328 330 331 328 329 328 332 331 329 329 329 325 324 321 312 315 316 320 324 328 330 338 341 340 343 336 334 332 331 330 330 330 327 325 325 324 322 321 322
333 333 332 331 330 330 330 329 333 334 333 333 332 329 325 324 320 319 316 313 313 313 321 329 332 335 337 338 339 333 330 327 326 326 327 328 328 324 322 321 321 320 320
328 330 332 329 328 329 330 328 328 331 329 330 329 329 328 325 325 322 317 310 310 311 313 322 328 330 331 337 336 330 325 321 320 321 322 323 324 324 323 319 318 319 317
327 330 329 330 330 328 330 332 331 331 332 329 328 329 325 323 323 322 316 311 307 310 312 316 325 325 327 333 332 329 326 319 318 317 317 318 320 320 320 319 318 316 311
329 331 328 332 333 332 329 330 332 330 325 325 325 324 324 324 323 318 317 316 316 309 312 316 318 321 322 324 326 327 325 318 318 315 315 315 315 315 315 317 316 312 309
325 325 323 323 327 332 329 328 330 330 331 330 328 330 327 325 321 322 317 317 322 317 309 315 315 319 322 322 323 323 322 319 317 315 314 313 312 313 314 314 312 311 307
325 324 324 323 324 328 330 331 333 332 332 330 331 331 329 330 327 324 321 319 316 316 311 315 317 322 324 324 324 326 323 324 318 314 313 311 310 311 312 312 311 309 306
328 328 327 327 325 326 328 329 329 330 330 328 328 329 328 327 328 326 323 321 319 320 316 316 319 320 322 324 325 324 321 320 317 311 310 309 308 309 309 307 307 307 304
327 327 327 326 326 324 324 324 325 326 328 329 329 328 327 328 325 325 325 320 321 320 322 317 316 317 317 318 319 318 316 317 313 309 309 308 307 307 309 306 305 303 301
326 325 325 324 323 323 322 321 322 321 321 323 326 326 326 327 326 324 323 324 322 322 322 318 316 316 316 315 319 315 312 313 311 308 307 306 305 305 306 307 303 302 300
325 325 324 324 324 322 320 323 323 323 321 319 319 320 320 317 313 317 324 325 325 322 319 318 317 316 315 313 316 316 315 312 312 311 307 305 304 305 305 305 305 303 300
323 324 323 323 323 317 301 305 318 322 322 321 319 319 317 313 309 306 308 309 321 325 323 319 318 317 319 317 316 315 314 310 308 312 309 306 304 303 304 305 304 302 301
324 323 322 323 323 320 299 299 305 320 320 320 319 318 314 311 315 316 304 304 303 303 309 325 322 321 321 319 318 315 315 313 313 312 310 306 305 302 303 302 301 301 301
323 322 322 323 322 318 297 296 301 315 315 314 316 316 317 316 313 315 317 316 317 316 317 317 322 324 322 322 319 318 317 315 312 310 310 304 308 302 303 303 299 299 299
319 319 320 320 321 319 296 295 304 311 309 308 307 308 311 310 297 296 314 313 313 313 298 296 296 294 295 296 307 312 309 308 307 306 307 305 305 304 303 302 302 298 297
319 317 317 319 312 320 295 294 303 307 308 305 307 307 297 304 293 294 310 310 309 311 308 306 308 303 299 303 297 312 311 305 304 302 308 302 303 303 299 303 303 303 300
Wind_Speed
3 5 5 5 6 6 7 7 7 8 9 10 8 9 9 10 13 8 7 25 22 18 18 20 20 20 21 19 18 18 17 19 19 18 16 15 16 15 14 14 14 14 14
3 3 4 6 6 6 6 6 8 8 8 8 8 9 8 10 13 14 7 8 15 19 19 20 22 22 22 22 20 20 19 18 19 18 16 15 16 15 14 14 14 14 13
5 5 5 5 6 6 6 7 9 8 8 7 8 7 7 10 10 13 10 5 6 11 13 15 20 22 23 22 23 23 20 18 18 17 16 16 16 14 14 14 14 14 13
8 6 6 6 5 5 5 8 8 8 8 7 5 6 7 8 11 13 9 5 4 1 9 18 22 23 22 23 24 23 21 17 16 16 16 17 15 14 14 14 13 14 13
7 7 5 4 7 5 6 8 8 9 9 6 6 6 7 7 10 10 11 9 7 4 7 17 21 23 22 23 23 22 21 19 16 17 16 16 15 15 14 13 13 12 11
1 6 4 6 6 7 8 8 10 8 9 7 7 8 8 7 9 8 8 7 6 6 2 13 11 14 23 22 21 22 21 19 17 17 16 14 15 14 13 13 11 10 9
4 6 6 7 7 8 9 11 10 13 7 9 7 9 7 8 10 8 6 7 7 6 6 4 4 6 11 25 19 19 19 18 17 17 15 14 14 14 11 10 10 9 8
5 6 6 6 8 8 11 12 13 9 6 8 6 7 4 6 7 6 5 7 8 6 6 5 6 9 8 6 12 17 18 17 16 16 15 13 13 11 11 9 8 7 5
3 5 6 7 8 8 8 12 10 12 6 7 12 5 4 3 5 4 4 9 8 6 6 5 4 8 10 8 12 15 16 16 16 15 14 13 12 11 10 8 7 5 2
6 7 6 7 5 7 10 8 9 6 9 8 6 4 5 7 4 4 3 6 8 7 6 4 4 8 8 9 13 14 14 14 15 15 13 12 11 10 9 6 5 3 3
6 11 7 7 7 6 9 11 11 7 7 10 9 10 11 6 5 3 3 6 7 6 5 4 4 6 11 7 10 10 12 12 12 13 11 11 10 9 8 7 5 6 6
5 9 10 7 9 8 9 8 12 13 8 8 7 7 9 6 6 4 4 6 6 4 3 4 6 6 5 6 8 13 10 11 12 11 11 9 9 9 7 7 8 8 7
4 7 9 7 6 9 9 5 9 9 6 8 8 5 6 7 5 5 7 3 3 2 3 4 3 5 6 7 10 12 11 10 11 11 10 9 8 8 9 9 8 9 9
4 6 4 6 7 9 8 8 7 6 9 7 11 8 8 7 7 7 5 8 5 2 2 3 1 4 5 6 9 7 9 10 10 9 9 8 9 10 10 9 10 11 10
3 4 5 5 5 8 6 6 6 7 6 5 5 6 8 7 6 3 2 3 4 6 6 5 5 4 5 7 9 8 9 10 9 9 9 9 9 10 10 10 11 11 10
1 4 5 4 4 6 5 6 5 7 8 6 6 10 9 6 7 6 4 2 3 6 6 6 5 7 6 6 7 7 7 10 9 9 10 9 8 8 9 11 12 11 11
4 7 8 7 4 5 7 7 5 6 7 9 8 10 11 11 8 7 6 4 5 5 10 5 7 7 6 6 6 5 7 7 8 9 10 9 9 9 11 12 12 12 10
6 8 9 10 9 9 7 8 8 8 10 9 7 9 11 8 9 8 5 4 4 4 8 12 8 6 5 4 4 5 5 5 8 9 11 10 9 9 11 11 10 10 9
8 8 9 11 11 10 9 8 9 9 10 9 9 10 10 9 7 6 5 5 5 6 8 9 8 3 3 4 5 4 5 6 6 11 8 7 7 8 10 10 9 9 8
8 9 9 10 10 11 10 10 9 10 9 9 8 9 9 8 9 8 5 5 6 7 6 7 6 5 4 4 5 7 7 5 5 8 4 4 7 7 8 11 10 10 9
7 8 9 9 9 8 6 10 10 10 10 10 8 8 7 9 10 6 4 6 7 6 6 7 6 5 6 7 8 6 6 6 6 6 7 7 7 7 7 10 12 11 11
7 7 7 7 7 6 8 9 8 8 8 9 8 7 8 8 8 7 8 5 3 7 7 6 6 8 8 7 6 7 7 7 7 9 9 9 8 8 8 9 12 12 11
7 6 6 6 6 6 7 8 7 6 6 6 6 6 5 4 5 8 8 9 8 4 2 5 7 7 6 9 8 9 10 9 8 4 10 9 8 10 8 8 10 11 10
7 6 6 5 5 4 6 7 6 6 5 5 5 5 5 5 4 5 5 5 4 3 2 3 5 4 6 5 9 6 8 8 5 5 9 10 9 11 9 10 14 13 12
7 6 6 6 6 6 7 8 6 6 5 5 4 4 4 5 5 2 5 5 4 3 4 4 3 4 5 4 7 6 8 8 9 8 9 9 8 10 10 11 11 15 12
7 6 6 5 4 6 10 10 8 6 7 6 6 5 3 4 9 6 4 4 4 4 4 4 4 3 3 5 7 10 7 9 9 7 8 9 10 7 8 11 11 11 11
Wind_Direction
259 225 212 207 201 202 214 208 202 188 181 182 183 185 174 174 161 157 151 163 184 167 165 156 155 138 137 137 136 134 127 125 119 108 113 115 107 103 100 93 87 84 85
261 242 207 203 204 201 191 176 170 165 174 170 177 181 159 169 166 152 156 180 190 176 165 160 148 144 147 145 140 132 128 123 119 122 117 112 107 104 101 96 91 90 89
246 238 228 220 209 185 163 168 161 157 167 159 174 173 176 162 157 135 125 120 110 149 159 171 151 153 151 144 138 129 125 123 127 123 118 112 110 109 105 101 98 94 91
227 231 232 208 182 152 169 163 162 163 162 148 151 166 159 146 135 122 124 120 86 113 182 188 168 153 148 148 137 131 129 127 129 119 118 115 114 112 108 102 101 95 90
247 225 214 185 172 163 171 161 158 160 152 139 140 133 121 123 120 120 139 141 159 205 183 214 166 157 148 147 136 132 130 131 126 124 121 115 118 118 111 108 97 97 100
206 180 170 173 164 166 162 163 159 153 143 140 129 110 112 109 119 117 116 111 130 105 117 207 167 160 143 138 135 133 133 134 131 123 121 126 126 119 114 111 111 103 98
140 147 148 153 165 166 165 165 155 140 129 136 117 106 99 102 109 117 114 106 109 87 68 70 102 148 145 129 130 135 135 133 130 131 134 133 124 119 124 122 111 111 96
130 182 162 164 167 160 165 159 151 142 130 137 131 123 114 98 81 83 104 119 99 89 74 69 159 144 118 118 129 136 139 135 136 135 137 131 125 136 135 128 121 104 100
106 141 152 163 165 162 158 154 138 140 139 137 145 125 130 124 112 30 38 99 108 96 85 94 127 146 150 147 142 142 139 139 138 138 130 129 146 146 136 131 115 109 106
71 90 88 107 100 134 131 121 129 114 138 133 130 72 78 124 119 105 27 84 89 85 87 74 121 122 136 148 145 136 134 146 147 136 143 149 149 142 135 133 129 114 61
75 86 81 85 102 113 111 111 119 133 145 145 133 122 121 83 71 131 107 106 69 48 54 72 111 115 140 150 143 139 144 147 134 137 153 149 146 139 135 130 114 95 91
46 77 79 87 93 108 104 119 131 142 132 125 108 128 136 141 147 115 120 76 93 56 45 102 114 121 133 126 131 136 136 136 133 138 134 132 137 139 134 121 113 111 106
56 57 63 59 87 108 109 104 117 131 128 119 122 114 103 110 111 102 112 94 107 113 87 74 93 121 124 136 135 140 144 140 134 133 131 138 129 127 123 117 118 113 107
42 67 91 84 103 111 115 131 121 118 128 114 128 125 126 126 128 141 149 133 114 88 111 105 137 134 144 144 123 154 157 138 135 133 136 135 139 129 118 124 124 120 111
58 56 64 91 134 141 127 107 115 110 99 103 108 127 133 135 136 103 125 154 141 146 130 158 152 162 145 147 151 176 155 146 142 147 140 147 143 138 136 136 130 121 115
10 81 59 86 126 155 135 120 137 133 142 149 155 157 145 137 140 157 147 175 137 140 129 168 134 142 146 149 151 158 157 156 149 152 152 136 141 145 149 147 137 129 118
92 103 121 120 139 142 136 138 139 160 150 149 152 162 152 153 153 152 157 141 141 142 144 130 137 138 133 147 147 155 161 182 160 146 134 140 142 140 154 150 150 143 134
81 100 113 112 113 114 123 126 139 145 149 144 145 154 143 145 151 155 152 124 133 141 142 142 136 146 128 134 146 145 157 154 163 144 147 148 148 147 147 144 153 157 148
68 76 94 99 104 108 109 109 119 119 124 136 146 147 138 143 141 142 140 154 145 146 152 158 146 141 102 155 144 137 147 145 168 134 118 129 139 142 159 155 154 159 166
94 86 83 94 101 112 116 115 110 106 110 113 116 123 134 148 157 156 151 151 137 147 141 142 143 148 165 154 190 174 174 183 167 180 127 111 174 161 168 171 169 174 182
103 103 99 89 87 88 90 107 102 100 102 99 90 90 74 67 54 70 165 166 155 162 163 169 167 174 179 176 198 183 199 184 191 202 198 192 191 194 186 195 191 192 196
119 118 114 113 104 87 64 64 94 102 105 111 111 103 109 116 92 89 87 71 148 170 180 189 187 207 197 202 185 194 196 202 218 198 213 212 213 212 207 210 191 199 208
137 132 127 128 113 111 110 107 110 113 119 120 128 137 141 117 137 118 95 100 78 50 354 213 210 214 207 206 195 201 209 219 231 150 216 233 202 229 215 208 189 211 218
154 151 153 145 138 117 125 120 109 119 127 138 155 160 151 144 113 133 141 130 119 93 81 228 238 240 236 200 206 226 229 238 248 225 217 246 206 231 213 220 189 209 216
163 170 176 171 175 151 158 160 157 141 134 141 151 156 148 146 127 182 158 148 150 164 108 40 16 344 300 252 230 203 212 216 238 233 195 245 229 235 218 223 210 207 212
176 175 172 186 173 177 171 176 175 160 165 172 179 174 209 182 162 183 162 172 201 216 215 230 234 230 232 206 221 230 238 233 239 256 201 219 227 216 228 221 224 205 215